Location: Vinland
(47.7731°N, 122.6974°W)
Time: 01:58:25
(UTC+00:00)

S-56A Canister/Altair - Pass Details

Date: 07 April 2023
Orbit: 639 x 2492 km, 38.9° (Epoch: 31 May)

Event Time Altitude Azimuth Distance (km) Brightness Sun altitude
Rises 03:24:12 0° 270° (W) 4,540 13.2 -6.7°
Reaches altitude 10° 03:26:59 10° 264° (W) 3,790 12.3 -7.2°
Maximum altitude 03:36:43 47° 195° (SSW) 2,527 10.1 -8.7°
Enters shadow 03:49:50 10° 129° (SE) 5,043 11.1 -10.8°
